| time (UTC) | temp F | wind direction | speed MPH | gust MPH | rain 1hr in | rain 24hr in | rain mn in | humidity % | barometer mb |
| 20260504000402 | 59 | 279 | 0.0 | 2.0 | 0.00 | 0.00 | 0.00 | 38 | 1015.8 |
| 20260503235902 | 59 | 0 | 0.0 | 1.0 | 0.00 | 0.00 | 0.00 | 36 | 1015.8 |
| 20260503235402 | 60 | 0 | 0.0 | 2.0 | 0.00 | 0.00 | 0.00 | 36 | 1016.0 |
| 20260503235125 | 60 | 286 | 1.0 | 2.0 | 0.00 | 0.00 | 0.00 | 36 | 1016.0 |
| 20260503234623 | 60 | 0 | 1.0 | 2.0 | 0.00 | 0.00 | 0.00 | 35 | 1015.8 |
| 20260503233901 | 60 | 277 | 0.0 | 2.0 | 0.00 | 0.00 | 0.00 | 35 | 1015.8 |
| 20260503233402 | 60 | 296 | 0.0 | 1.0 | 0.00 | 0.00 | 0.00 | 34 | 1015.7 |
| 20260503232901 | 60 | 0 | 0.0 | 2.0 | 0.00 | 0.00 | 0.00 | 34 | 1015.7 |
| 20260503232402 | 61 | 316 | 0.0 | 2.0 | 0.00 | 0.00 | 0.00 | 34 | 1015.7 |
| 20260503231902 | 61 | 0 | 0.0 | 3.0 | 0.00 | 0.00 | 0.00 | 33 | 1015.7 |
| 20260503231626 | 61 | 294 | 0.0 | 3.0 | 0.00 | 0.00 | 0.00 | 32 | 1015.7 |
| 20260503230902 | 61 | 327 | 0.0 | 2.0 | 0.00 | 0.00 | 0.00 | 34 | 1015.7 |
| 20260503230401 | 61 | 0 | 0.0 | 2.0 | 0.00 | 0.00 | 0.00 | 33 | 1015.7 |
| 20260503225901 | 61 | 318 | 0.0 | 2.0 | 0.00 | 0.00 | 0.00 | 34 | 1015.7 |
| 20260503225401 | 62 | 210 | 0.0 | 2.0 | 0.00 | 0.00 | 0.00 | 34 | 1015.7 |
| 20260503224902 | 62 | 0 | 0.0 | 2.0 | 0.00 | 0.00 | 0.00 | 32 | 1015.7 |
| 20260503224403 | 62 | 279 | 1.0 | 2.0 | 0.00 | 0.00 | 0.00 | 33 | 1015.7 |
| 20260503223902 | 62 | 234 | 0.0 | 2.0 | 0.00 | 0.00 | 0.00 | 33 | 1015.7 |
| 20260503222902 | 62 | 0 | 1.0 | 2.0 | 0.00 | 0.00 | 0.00 | 35 | 1015.7 |
| 20260503222402 | 63 | 228 | 1.0 | 2.0 | 0.00 | 0.00 | 0.00 | 35 | 1015.7 |
| 20260503221902 | 63 | 320 | 0.0 | 2.0 | 0.00 | 0.00 | 0.00 | 36 | 1015.7 |
| 20260503221402 | 63 | 280 | 0.0 | 2.0 | 0.00 | 0.00 | 0.00 | 34 | 1015.7 |
| 20260503220902 | 63 | 246 | 0.0 | 2.0 | 0.00 | 0.00 | 0.00 | 34 | 1015.7 |
| 20260503220403 | 64 | 0 | 0.0 | 2.0 | 0.00 | 0.00 | 0.00 | 34 | 1015.8 |
| 20260503215903 | 64 | 0 | 0.0 | 2.0 | 0.00 | 0.00 | 0.00 | 32 | 1015.8 |
| 20260503215402 | 64 | 43 | 0.0 | 3.0 | 0.00 | 0.00 | 0.00 | 36 | 1015.8 |
| 20260503214902 | 64 | 0 | 0.0 | 3.0 | 0.00 | 0.00 | 0.00 | 34 | 1015.8 |
| 20260503214402 | 64 | 0 | 0.0 | 3.0 | 0.00 | 0.00 | 0.00 | 36 | 1015.8 |
| 20260503214128 | 64 | 0 | 0.0 | 3.0 | 0.00 | 0.00 | 0.00 | 35 | 1015.8 |
| 20260503213402 | 64 | 0 | 1.0 | 5.0 | 0.00 | 0.00 | 0.00 | 34 | 1015.8 |
| 20260503211403 | 65 | 53 | 0.0 | 2.0 | 0.00 | 0.00 | 0.00 | 38 | 1016.1 |
| 20260503210902 | 65 | 0 | 0.0 | 2.0 | 0.00 | 0.00 | 0.00 | 38 | 1016.1 |
| 20260503210402 | 65 | 272 | 1.0 | 3.0 | 0.00 | 0.00 | 0.00 | 38 | 1016.2 |
| 20260503205902 | 64 | 0 | 1.0 | 4.0 | 0.00 | 0.00 | 0.00 | 38 | 1016.2 |
| 20260503205619 | 64 | 44 | 1.0 | 4.0 | 0.00 | 0.00 | 0.00 | 38 | 1016.2 |
| 20260503204902 | 64 | 176 | 1.0 | 4.0 | 0.00 | 0.00 | 0.00 | 41 | 1016.2 |
| 20260503204402 | 64 | 17 | 1.0 | 3.0 | 0.00 | 0.00 | 0.00 | 40 | 1016.3 |
| 20260503203902 | 64 | 319 | 1.0 | 3.0 | 0.00 | 0.00 | 0.00 | 41 | 1016.3 |
| 20260503203620 | 64 | 325 | 1.0 | 3.0 | 0.00 | 0.00 | 0.00 | 41 | 1016.4 |
| 20260503202902 | 63 | 300 | 1.0 | 3.0 | 0.00 | 0.00 | 0.00 | 41 | 1016.3 |
| 20260503202402 | 63 | 0 | 1.0 | 4.0 | 0.00 | 0.00 | 0.00 | 40 | 1016.4 |
| 20260503201902 | 63 | 0 | 1.0 | 4.0 | 0.00 | 0.00 | 0.00 | 40 | 1016.4 |
| 20260503201624 | 64 | 147 | 1.0 | 3.0 | 0.00 | 0.00 | 0.00 | 42 | 1016.6 |
| 20260503200902 | 64 | 195 | 1.0 | 3.0 | 0.00 | 0.00 | 0.00 | 41 | 1016.6 |
| 20260503200402 | 64 | 176 | 1.0 | 4.0 | 0.00 | 0.00 | 0.00 | 40 | 1016.7 |
| 20260503195902 | 64 | 292 | 1.0 | 4.0 | 0.00 | 0.00 | 0.00 | 40 | 1016.7 |
| 20260503195401 | 64 | 306 | 1.0 | 3.0 | 0.00 | 0.00 | 0.00 | 40 | 1016.8 |
| 20260503194401 | 64 | 0 | 1.0 | 4.0 | 0.00 | 0.00 | 0.00 | 41 | 1016.8 |
| 20260503193901 | 64 | 185 | 2.0 | 5.0 | 0.00 | 0.00 | 0.00 | 42 | 1016.8 |
| 20260503193401 | 65 | 172 | 2.0 | 5.0 | 0.00 | 0.00 | 0.00 | 41 | 1016.8 |
| 20260503192902 | 65 | 328 | 1.0 | 4.0 | 0.00 | 0.00 | 0.00 | 41 | 1017.5 |
| 20260503192402 | 65 | 198 | 2.0 | 5.0 | 0.00 | 0.00 | 0.00 | 40 | 1018.0 |
| 20260503191902 | 65 | 349 | 2.0 | 5.0 | 0.00 | 0.00 | 0.00 | 40 | 1017.9 |
| 20260503191401 | 65 | 344 | 1.0 | 3.0 | 0.00 | 0.00 | 0.00 | 40 | 1018.2 |
| 20260503190901 | 65 | 179 | 1.0 | 4.0 | 0.00 | 0.00 | 0.00 | 40 | 1018.3 |
| 20260503190626 | 66 | 190 | 1.0 | 4.0 | 0.00 | 0.00 | 0.00 | 39 | 1018.4 |
| 20260503185901 | 66 | 199 | 1.0 | 4.0 | 0.00 | 0.00 | 0.00 | 38 | 1018.5 |
| 20260503185401 | 66 | 153 | 1.0 | 3.0 | 0.00 | 0.00 | 0.00 | 39 | 1018.5 |
| 20260503184902 | 65 | 58 | 1.0 | 3.0 | 0.00 | 0.00 | 0.00 | 40 | 1018.7 |
| 20260503184127 | 64 | 2 | 1.0 | 4.0 | 0.00 | 0.00 | 0.00 | 41 | 1019.2 |
| 20260503183403 | 64 | 216 | 1.0 | 4.0 | 0.00 | 0.00 | 0.00 | 42 | 1018.5 |
| 20260503182621 | 62 | 0 | 2.0 | 4.0 | 0.00 | 0.00 | 0.00 | 42 | 1018.5 |
| 20260503181402 | 62 | 178 | 1.0 | 4.0 | 0.00 | 0.00 | 0.00 | 41 | 1018.6 |
| 20260503181121 | 62 | 159 | 2.0 | 4.0 | 0.00 | 0.00 | 0.00 | 42 | 1018.6 |
| 20260503180402 | 62 | 312 | 2.0 | 5.0 | 0.00 | 0.00 | 0.00 | 42 | 1018.9 |
| 20260503175902 | 61 | 0 | 2.0 | 5.0 | 0.00 | 0.00 | 0.00 | 42 | 1018.5 |
| 20260503175402 | 61 | 37 | 1.0 | 3.0 | 0.00 | 0.00 | 0.00 | 44 | 1018.5 |
| 20260503174903 | 60 | 218 | 1.0 | 3.0 | 0.00 | 0.00 | 0.00 | 44 | 1018.3 |
| 20260503174402 | 60 | 222 | 2.0 | 4.0 | 0.00 | 0.00 | 0.00 | 43 | 1018.5 |
| 20260503174122 | 60 | 199 | 1.0 | 4.0 | 0.00 | 0.00 | 0.00 | 44 | 1018.4 |
| 20260503173402 | 60 | 171 | 2.0 | 3.0 | 0.00 | 0.00 | 0.00 | 43 | 1018.9 |
| 20260503172902 | 60 | 180 | 2.0 | 3.0 | 0.00 | 0.00 | 0.00 | 44 | 1019.4 |
| 20260503172402 | 60 | 129 | 2.0 | 5.0 | 0.00 | 0.00 | 0.00 | 46 | 1020.0 |
| 20260503172122 | 59 | 188 | 2.0 | 5.0 | 0.00 | 0.00 | 0.00 | 44 | 1019.7 |
| 20260503171402 | 60 | 256 | 1.0 | 4.0 | 0.00 | 0.00 | 0.00 | 43 | 1019.6 |
| 20260503170901 | 59 | 151 | 1.0 | 3.0 | 0.00 | 0.00 | 0.00 | 45 | 1019.8 |
| 20260503170625 | 59 | 0 | 1.0 | 3.0 | 0.00 | 0.00 | 0.00 | 45 | 1019.8 |
| 20260503150902 | 53 | 0 | 1.0 | 3.0 | 0.00 | 0.01 | 0.00 | 59 | 1020.3 |
| 20260503150623 | 53 | 56 | 1.0 | 4.0 | 0.00 | 0.01 | 0.00 | 60 | 1020.3 |
| 20260503150121 | 52 | 178 | 1.0 | 4.0 | 0.00 | 0.01 | 0.00 | 59 | 1020.3 |
| 20260503131120 | 44 | 0 | 1.0 | 2.0 | 0.00 | 0.01 | 0.00 | 83 | 1020.1 |
| 20260503130619 | 44 | 18 | 1.0 | 2.0 | 0.00 | 0.01 | 0.00 | 83 | 1020.1 |
| 20260503130126 | 43 | 270 | 1.0 | 2.0 | 0.00 | 0.01 | 0.00 | 85 | 1020.0 |
| 20260503110401 | 37 | 265 | 0.0 | 1.0 | 0.00 | 0.01 | 0.00 | 91 | 1018.3 |
| 20260503081400 | 41 | 267 | 1.0 | 1.0 | 0.00 | 0.01 | 0.00 | 82 | 1016.8 |
| 20260503080900 | 41 | 315 | 1.0 | 2.0 | 0.00 | 0.01 | 0.00 | 82 | 1016.7 |
| 20260503080402 | 41 | 344 | 1.0 | 2.0 | 0.00 | 0.01 | 0.00 | 82 | 1016.6 |
| 20260503072402 | 43 | 278 | 1.0 | 2.0 | 0.00 | 0.01 | 0.00 | 73 | 1016.5 |
| 20260503071902 | 43 | 310 | 1.0 | 2.0 | 0.00 | 0.01 | 0.00 | 72 | 1016.5 |
| 20260503071403 | 43 | 303 | 1.0 | 2.0 | 0.00 | 0.01 | 0.00 | 72 | 1016.5 |
| 20260503070903 | 43 | 292 | 0.0 | 1.0 | 0.00 | 0.01 | 0.00 | 72 | 1016.4 |
| 20260503070129 | 44 | 287 | 1.0 | 1.0 | 0.00 | 0.01 | 0.00 | 73 | 1016.4 |
| 20260503060121 | 46 | 284 | 1.0 | 2.0 | 0.00 | 0.01 | 0.00 | 67 | 1016.3 |
| 20260503054901 | 46 | 310 | 1.0 | 2.0 | 0.00 | 0.01 | 0.00 | 67 | 1016.4 |
| 20260503054401 | 46 | 289 | 1.0 | 2.0 | 0.00 | 0.01 | 0.00 | 67 | 1016.4 |
| 20260503053901 | 46 | 284 | 1.0 | 2.0 | 0.00 | 0.01 | 0.00 | 67 | 1016.5 |
| 20260503053400 | 46 | 249 | 1.0 | 2.0 | 0.00 | 0.01 | 0.00 | 68 | 1016.5 |
| 20260503052901 | 46 | 230 | 1.0 | 2.0 | 0.00 | 0.01 | 0.00 | 70 | 1016.6 |
| 20260503052401 | 46 | 0 | 0.0 | 2.0 | 0.00 | 0.01 | 0.00 | 72 | 1016.7 |
| 20260503051401 | 46 | 285 | 1.0 | 2.0 | 0.00 | 0.01 | 0.00 | 70 | 1016.7 |
| 20260503051118 | 46 | 292 | 1.0 | 2.0 | 0.00 | 0.01 | 0.00 | 70 | 1016.7 |
| 20260503050401 | 46 | 250 | 1.0 | 2.0 | 0.00 | 0.01 | 0.00 | 71 | 1016.7 |
| 20260503050121 | 45 | 0 | 1.0 | 2.0 | 0.00 | 0.01 | 0.00 | 71 | 1016.7 |
| 20260503045400 | 45 | 226 | 1.0 | 2.0 | 0.00 | 0.01 | 0.00 | 70 | 1016.7 |
| 20260503044401 | 46 | 270 | 1.0 | 2.0 | 0.00 | 0.01 | 0.00 | 73 | 1016.6 |
| 20260503043901 | 46 | 231 | 1.0 | 2.0 | 0.00 | 0.01 | 0.00 | 74 | 1016.5 |
| 20260503043401 | 46 | 275 | 1.0 | 2.0 | 0.00 | 0.01 | 0.00 | 73 | 1016.4 |
| 20260503042901 | 46 | 295 | 0.0 | 2.0 | 0.00 | 0.01 | 0.00 | 72 | 1016.5 |
| 20260503042401 | 47 | 0 | 0.0 | 2.0 | 0.00 | 0.01 | 0.00 | 72 | 1016.5 |
| 20260503042122 | 47 | 275 | 0.0 | 2.0 | 0.00 | 0.01 | 0.00 | 70 | 1016.4 |
| 20260503041624 | 47 | 283 | 0.0 | 2.0 | 0.00 | 0.01 | 0.00 | 70 | 1016.3 |
| 20260503040902 | 47 | 0 | 0.0 | 2.0 | 0.00 | 0.01 | 0.00 | 68 | 1016.3 |
| 20260503040401 | 47 | 277 | 0.0 | 2.0 | 0.00 | 0.01 | 0.00 | 67 | 1016.2 |
| 20260503035901 | 47 | 244 | 0.0 | 2.0 | 0.00 | 0.01 | 0.01 | 65 | 1016.2 |
| 20260503035401 | 47 | 274 | 0.0 | 1.0 | 0.00 | 0.01 | 0.01 | 65 | 1016.2 |
| 20260503035122 | 47 | 0 | 0.0 | 1.0 | 0.00 | 0.01 | 0.01 | 64 | 1016.2 |
| 20260503034401 | 47 | 260 | 0.0 | 2.0 | 0.00 | 0.01 | 0.01 | 65 | 1016.1 |
| 20260503033902 | 47 | 0 | 0.0 | 2.0 | 0.00 | 0.01 | 0.01 | 64 | 1016.1 |
| 20260503033402 | 47 | 282 | 1.0 | 2.0 | 0.00 | 0.01 | 0.01 | 62 | 1016.1 |
| 20260503032902 | 47 | 302 | 1.0 | 1.0 | 0.00 | 0.01 | 0.01 | 61 | 1016.0 |
| 20260503032624 | 47 | 301 | 0.0 | 1.0 | 0.00 | 0.01 | 0.01 | 61 | 1016.0 |
| 20260503032121 | 47 | 159 | 0.0 | 1.0 | 0.00 | 0.01 | 0.01 | 61 | 1016.0 |
| 20260503031401 | 48 | 0 | 1.0 | 2.0 | 0.00 | 0.01 | 0.01 | 62 | 1016.0 |
| 20260503030901 | 48 | 273 | 1.0 | 2.0 | 0.00 | 0.01 | 0.01 | 62 | 1016.0 |
| 20260503030401 | 48 | 38 | 1.0 | 2.0 | 0.00 | 0.01 | 0.01 | 60 | 1016.0 |
| 20260503025901 | 48 | 306 | 1.0 | 1.0 | 0.00 | 0.01 | 0.01 | 60 | 1015.8 |
| 20260503025621 | 48 | 298 | 1.0 | 2.0 | 0.00 | 0.01 | 0.01 | 60 | 1015.8 |
| 20260503025119 | 48 | 313 | 1.0 | 2.0 | 0.00 | 0.01 | 0.01 | 60 | 1015.7 |
| 20260503024401 | 48 | 274 | 1.0 | 2.0 | 0.00 | 0.01 | 0.01 | 60 | 1015.6 |
| 20260503023901 | 48 | 272 | 1.0 | 2.0 | 0.00 | 0.01 | 0.01 | 61 | 1015.5 |
| 20260503022901 | 48 | 0 | 0.0 | 2.0 | 0.00 | 0.01 | 0.01 | 59 | 1015.4 |
| 20260503022401 | 48 | 345 | 1.0 | 2.0 | 0.00 | 0.01 | 0.01 | 59 | 1015.3 |
| 20260503021901 | 48 | 295 | 1.0 | 2.0 | 0.00 | 0.01 | 0.01 | 59 | 1015.3 |
| 20260503021400 | 48 | 248 | 1.0 | 2.0 | 0.00 | 0.01 | 0.01 | 59 | 1015.3 |
| 20260503020900 | 49 | 271 | 1.0 | 2.0 | 0.00 | 0.01 | 0.01 | 59 | 1015.3 |
| 20260503020401 | 49 | 310 | 1.0 | 3.0 | 0.00 | 0.01 | 0.01 | 58 | 1015.2 |
| 20260503015901 | 49 | 278 | 1.0 | 3.0 | 0.00 | 0.01 | 0.01 | 59 | 1015.2 |
| 20260503015401 | 49 | 228 | 1.0 | 3.0 | 0.00 | 0.01 | 0.01 | 58 | 1015.0 |
| 20260503014901 | 49 | 257 | 1.0 | 3.0 | 0.00 | 0.01 | 0.01 | 57 | 1015.0 |
| 20260503014626 | 50 | 349 | 1.0 | 3.0 | 0.00 | 0.01 | 0.01 | 57 | 1014.9 |
| 20260503014119 | 50 | 314 | 1.0 | 2.0 | 0.00 | 0.01 | 0.01 | 57 | 1014.9 |
| 20260503013401 | 50 | 300 | 1.0 | 2.0 | 0.00 | 0.01 | 0.01 | 57 | 1014.9 |
| 20260503013124 | 50 | 290 | 1.0 | 2.0 | 0.00 | 0.01 | 0.01 | 56 | 1014.8 |
| 20260503012400 | 50 | 296 | 1.0 | 2.0 | 0.00 | 0.01 | 0.01 | 56 | 1014.8 |
| 20260503011901 | 50 | 334 | 1.0 | 2.0 | 0.00 | 0.01 | 0.01 | 56 | 1014.8 |
| 20260503011401 | 51 | 308 | 1.0 | 2.0 | 0.00 | 0.01 | 0.01 | 56 | 1014.7 |
| 20260503010902 | 51 | 322 | 1.0 | 2.0 | 0.00 | 0.01 | 0.01 | 55 | 1014.6 |
| 20260503010401 | 51 | 279 | 0.0 | 2.0 | 0.00 | 0.01 | 0.01 | 55 | 1014.5 |
| 20260503005901 | 51 | 24 | 1.0 | 2.0 | 0.00 | 0.01 | 0.01 | 53 | 1014.5 |
| 20260503005400 | 51 | 288 | 1.0 | 2.0 | 0.00 | 0.01 | 0.01 | 53 | 1014.3 |
| 20260503004900 | 51 | 298 | 1.0 | 2.0 | 0.00 | 0.01 | 0.01 | 53 | 1014.2 |
| 20260503004628 | 51 | 251 | 1.0 | 3.0 | 0.00 | 0.01 | 0.01 | 53 | 1014.2 |
| 20260503003900 | 51 | 13 | 1.0 | 3.0 | 0.00 | 0.01 | 0.01 | 53 | 1014.1 |
| 20260503003621 | 51 | 291 | 1.0 | 3.0 | 0.00 | 0.01 | 0.01 | 53 | 1014.0 |
| 20260503002903 | 51 | 318 | 1.0 | 2.0 | 0.00 | 0.01 | 0.01 | 54 | 1014.0 |
| 20260503002628 | 52 | 283 | 1.0 | 2.0 | 0.00 | 0.01 | 0.01 | 54 | 1013.9 |
| 20260503001902 | 52 | 281 | 1.0 | 2.0 | 0.00 | 0.01 | 0.01 | 53 | 1013.8 |
| 20260503001402 | 52 | 351 | 1.0 | 2.0 | 0.00 | 0.01 | 0.01 | 52 | 1013.8 |
| 20260503000903 | 53 | 236 | 1.0 | 3.0 | 0.00 | 0.01 | 0.01 | 52 | 1013.7 |